When you browse on this site, cookies collect data to enhance your experience and personalize the content and advertising you see.
Visit our Privacy Policy to learn more. By continuing to use the site, you agree to this use of cookies and data.
  • In Romania
  • List of Countries
  • For 7 days
  • Water Temperature
  • Satellite Maps
  • Weather Map
  • Weather Widgets
  • user-avatar
    Login

    Hourly Weather Wierzbno

    Today, 26 June, Wednesday

    Time Temperature Precipitation Wind Pressure Humidity
    00:00 +23°C° 0 mm 1 mps 749 mmHg 94%
    01:00 +22°C° 0 mm 1 mps 749 mmHg 94%
    02:00 +22°C° 0 mm 1 mps 748 mmHg 93%
    03:00 +22°C° 0 mm 1 mps 748 mmHg 93%
    04:00 +22°C° 0 mm 1 mps 748 mmHg 92%
    05:00 +23°C° 0 mm 1 mps 748 mmHg 87%
    06:00 +25°C° 0 mm 1 mps 748 mmHg 82%
    07:00 +26°C° 0 mm 1 mps 748 mmHg 77%
    08:00 +28°C° 0 mm 1 mps 748 mmHg 72%
    09:00 +29°C° 0 mm 1 mps 748 mmHg 67%
    10:00 +31°C° 0 mm 1 mps 748 mmHg 62%
    11:00 +32°C° 0 mm 1 mps 748 mmHg 57%
    12:00 +34°C° 0 mm 2 mps 747 mmHg 53%
    13:00 +34°C° 0 mm 2 mps 747 mmHg 48%
    14:00 +34°C° 0 mm 2 mps 747 mmHg 50%
    15:00 +35°C° 0 mm 3 mps 746 mmHg 51%
    16:00 +35°C° 0 mm 3 mps 745 mmHg 53%
    17:00 +33°C° 0 mm 3 mps 745 mmHg 58%
    18:00 +30°C° 0 mm 3 mps 745 mmHg 64%
    19:00 +28°C° 0 mm 4 mps 745 mmHg 70%
    20:00 +27°C° 0 mm 4 mps 744 mmHg 72%
    21:00 +26°C° 0 mm 4 mps 744 mmHg 75%
    22:00 +26°C° 0 mm 4 mps 744 mmHg 77%
    23:00 +26°C° 0 mm 4 mps 744 mmHg 77%

    Tomorrow, 27 June, Thursday

    Time Temperature Precipitation Wind Pressure Humidity
    00:00 +25°C° 0 mm 4 mps 744 mmHg 77%
    01:00 +25°C° 0 mm 5 mps 743 mmHg 77%
    02:00 +25°C° 0.3 mm 5 mps 743 mmHg 81%
    03:00 +23°C° 0.3 mm 5 mps 743 mmHg 85%
    04:00 +23°C° 0.3 mm 5 mps 743 mmHg 89%
    05:00 +23°C° 0.6 mm 5 mps 743 mmHg 89%
    06:00 +22°C° 0.6 mm 5 mps 743 mmHg 89%
    07:00 +22°C° 0.6 mm 5 mps 743 mmHg 89%
    08:00 +23°C° 0 mm 6 mps 743 mmHg 82%
    09:00 +23°C° 0 mm 7 mps 743 mmHg 75%
    10:00 +24°C° 0 mm 7 mps 743 mmHg 68%
    11:00 +24°C° 0 mm 7 mps 743 mmHg 61%
    12:00 +24°C° 0 mm 7 mps 743 mmHg 55%
    13:00 +26°C° 0 mm 7 mps 743 mmHg 48%
    14:00 +24°C° 0 mm 7 mps 743 mmHg 49%
    15:00 +24°C° 0 mm 7 mps 742 mmHg 50%
    16:00 +23°C° 0 mm 7 mps 742 mmHg 51%
    17:00 +22°C° 0 mm 6 mps 742 mmHg 57%
    18:00 +20°C° 0 mm 5 mps 742 mmHg 63%
    19:00 +19°C° 0 mm 4 mps 742 mmHg 69%
    20:00 +18°C° 0 mm 4 mps 743 mmHg 72%
    21:00 +17°C° 0 mm 4 mps 743 mmHg 75%
    22:00 +16°C° 0 mm 3 mps 743 mmHg 79%
    23:00 +16°C° 0 mm 3 mps 743 mmHg 83%

    Day after tomorrow, 28 June, Friday

    Time Temperature Precipitation Wind Pressure Humidity
    00:00 +14°C° 0 mm 3 mps 743 mmHg 88%
    01:00 +14°C° 0 mm 3 mps 743 mmHg 93%
    02:00 +14°C° 0 mm 3 mps 743 mmHg 92%
    03:00 +14°C° 0 mm 3 mps 744 mmHg 92%
    04:00 +14°C° 0 mm 3 mps 744 mmHg 92%
    05:00 +14°C° 0 mm 3 mps 744 mmHg 85%
    06:00 +16°C° 0 mm 3 mps 744 mmHg 78%
    07:00 +17°C° 0 mm 3 mps 744 mmHg 70%
    08:00 +18°C° 0 mm 3 mps 744 mmHg 64%
    09:00 +19°C° 0 mm 4 mps 744 mmHg 57%
    10:00 +20°C° 0 mm 4 mps 744 mmHg 51%
    11:00 +21°C° 0 mm 4 mps 744 mmHg 51%
    12:00 +21°C° 0 mm 4 mps 744 mmHg 51%
    13:00 +21°C° 0 mm 4 mps 744 mmHg 51%
    14:00 +22°C° 0 mm 4 mps 744 mmHg 54%
    15:00 +22°C° 0 mm 4 mps 744 mmHg 56%
    16:00 +22°C° 0 mm 3 mps 743 mmHg 58%
    17:00 +21°C° 0.2 mm 3 mps 743 mmHg 65%
    18:00 +20°C° 0.2 mm 3 mps 743 mmHg 72%
    19:00 +18°C° 0.2 mm 3 mps 744 mmHg 79%
    20:00 +17°C° 0 mm 2 mps 744 mmHg 79%
    21:00 +16°C° 0 mm 2 mps 744 mmHg 80%
    22:00 +14°C° 0 mm 2 mps 745 mmHg 80%
    23:00 +13°C° 0 mm 2 mps 745 mmHg 81%

    29 June, Saturday

    Time Temperature Precipitation Wind Pressure Humidity
    00:00 +13°C° 0 mm 2 mps 745 mmHg 82%
    01:00 +11°C° 0 mm 3 mps 745 mmHg 83%
    02:00 +10°C° 0 mm 2 mps 745 mmHg 83%
    03:00 +10°C° 0 mm 2 mps 745 mmHg 84%
    04:00 +9°C° 0 mm 2 mps 746 mmHg 85%
    05:00 +12°C° 0 mm 2 mps 746 mmHg 79%
    06:00 +13°C° 0 mm 3 mps 746 mmHg 73%
    07:00 +14°C° 0 mm 3 mps 746 mmHg 68%
    08:00 +17°C° 0 mm 3 mps 746 mmHg 62%
    09:00 +19°C° 0 mm 3 mps 746 mmHg 56%
    10:00 +20°C° 0 mm 4 mps 746 mmHg 51%
    11:00 +21°C° 0 mm 4 mps 746 mmHg 51%
    12:00 +22°C° 0 mm 4 mps 746 mmHg 51%
    13:00 +22°C° 0 mm 4 mps 745 mmHg 50%
    14:00 +22°C° 0 mm 4 mps 745 mmHg 52%
    15:00 +24°C° 0 mm 3 mps 745 mmHg 54%
    16:00 +24°C° 0 mm 3 mps 745 mmHg 55%
    17:00 +22°C° 0 mm 3 mps 745 mmHg 60%
    18:00 +21°C° 0 mm 2 mps 745 mmHg 65%
    19:00 +21°C° 0 mm 1 mps 745 mmHg 70%
    20:00 +20°C° 0 mm 1 mps 745 mmHg 72%
    21:00 +18°C° 0 mm 1 mps 745 mmHg 74%
    22:00 +16°C° 0 mm 1 mps 745 mmHg 75%
    23:00 +16°C° 0 mm 1 mps 745 mmHg 75%

    30 June, Sunday

    Time Temperature Precipitation Wind Pressure Humidity
    00:00 +15°C° 0 mm 1 mps 745 mmHg 76%
    01:00 +15°C° 0 mm 1 mps 745 mmHg 76%
    02:00 +15°C° 0 mm 1 mps 745 mmHg 77%
    03:00 +15°C° 0 mm 2 mps 745 mmHg 77%
    04:00 +14°C° 0 mm 2 mps 745 mmHg 78%
    05:00 +16°C° 0 mm 2 mps 745 mmHg 73%
    06:00 +18°C° 0 mm 2 mps 745 mmHg 69%
    07:00 +20°C° 0 mm 2 mps 745 mmHg 65%
    08:00 +23°C° 0 mm 2 mps 745 mmHg 59%
    09:00 +24°C° 0 mm 2 mps 745 mmHg 54%
    10:00 +26°C° 0 mm 2 mps 745 mmHg 49%
    11:00 +27°C° 0 mm 2 mps 745 mmHg 47%
    12:00 +28°C° 0 mm 2 mps 744 mmHg 46%
    13:00 +29°C° 0 mm 2 mps 744 mmHg 44%
    14:00 +29°C° 0 mm 2 mps 744 mmHg 45%
    15:00 +29°C° 0 mm 2 mps 743 mmHg 47%
    16:00 +30°C° 0 mm 2 mps 743 mmHg 48%
    17:00 +28°C° 0 mm 2 mps 743 mmHg 54%
    18:00 +26°C° 0 mm 2 mps 743 mmHg 61%
    19:00 +25°C° 0 mm 2 mps 742 mmHg 67%
    20:00 +24°C° 0 mm 2 mps 743 mmHg 69%
    21:00 +21°C° 0 mm 2 mps 743 mmHg 72%
    22:00 +20°C° 0 mm 2 mps 743 mmHg 74%
    23:00 +19°C° 0 mm 3 mps 742 mmHg 77%

    1 July, Monday

    Time Temperature Precipitation Wind Pressure Humidity
    00:00 +18°C° 0 mm 3 mps 742 mmHg 80%
    01:00 +18°C° 0 mm 3 mps 742 mmHg 83%
    02:00 +17°C° 0 mm 3 mps 742 mmHg 83%
    03:00 +17°C° 0 mm 3 mps 742 mmHg 83%
    04:00 +17°C° 0 mm 3 mps 742 mmHg 82%
    05:00 +18°C° 0 mm 3 mps 742 mmHg 77%
    06:00 +20°C° 0 mm 3 mps 742 mmHg 73%
    07:00 +22°C° 0 mm 3 mps 742 mmHg 68%
    08:00 +25°C° 0 mm 3 mps 742 mmHg 64%
    09:00 +27°C° 0 mm 3 mps 742 mmHg 60%
    10:00 +28°C° 0 mm 4 mps 742 mmHg 57%
    11:00 +29°C° 0 mm 4 mps 741 mmHg 57%
    12:00 +30°C° 0 mm 4 mps 741 mmHg 56%
    13:00 +30°C° 0 mm 4 mps 741 mmHg 56%
    14:00 +30°C° 0 mm 4 mps 740 mmHg 56%
    15:00 +32°C° 0 mm 4 mps 740 mmHg 56%
    16:00 +32°C° 0 mm 4 mps 740 mmHg 55%
    17:00 +29°C° 0.3 mm 5 mps 740 mmHg 62%
    18:00 +28°C° 0.3 mm 5 mps 739 mmHg 68%
    19:00 +26°C° 0.3 mm 5 mps 739 mmHg 74%
    20:00 +25°C° 0.1 mm 4 mps 740 mmHg 77%
    21:00 +23°C° 0.1 mm 4 mps 740 mmHg 79%
    22:00 +22°C° 0.1 mm 3 mps 740 mmHg 82%
    23:00 +21°C° 3 mm 4 mps 740 mmHg 86%
    Show more